This is the latest recevied weather packets stored in our database for station/object N6WDO. If no packets are shown the sender has not sent any weather packets the latest 1 day(s).
| Time | Temp. | Humidity | Pressure | Rain* | Wind** | Luminosity | Snow |
|---|---|---|---|---|---|---|---|
| 1778023962 | 14.44° C | 76% | 1016.8 hPa | 0 mm | 0.45 m/s, 165° | 149 W/m² | - |
| 1778023658 | 13.89° C | 79% | 1016.6 hPa | 0 mm | 0 m/s | 127 W/m² | - |
| 1778023356 | 13.89° C | 79% | 1016.8 hPa | 0 mm | 0.45 m/s, 188° | 95 W/m² | - |
| 1778023052 | 14.44° C | 78% | 1016.7 hPa | 0 mm | 1.79 m/s, 182° | 105 W/m² | - |
| 1778022751 | 14.44° C | 76% | 1016.5 hPa | 0 mm | 0.45 m/s, 206° | 112 W/m² | - |
| 1778022449 | 14.44° C | 72% | 1016.6 hPa | 0 mm | 0.45 m/s, 169° | 98 W/m² | - |
| 1778022146 | 15° C | 70% | 1016.7 hPa | 0 mm | 0 m/s | 92 W/m² | - |
| 1778021842 | 14.44° C | 68% | 1016.7 hPa | 0 mm | 0.45 m/s, 218° | 94 W/m² | - |
| 1778021539 | 15° C | 71% | 1016.6 hPa | 0 mm | 0 m/s | 95 W/m² | - |
| 1778021235 | 15° C | 66% | 1016.8 hPa | 0 mm | 0 m/s | 109 W/m² | - |
| 1778020932 | 15° C | 67% | 1016.6 hPa | 0 mm | 0 m/s | 118 W/m² | - |
| 1778020630 | 15° C | 68% | 1016.7 hPa | 0 mm | 0 m/s | 121 W/m² | - |
| 1778020326 | 14.44° C | 66% | 1016.8 hPa | 0 mm | 0 m/s | 112 W/m² | - |
| 1778020022 | 15° C | 66% | 1016.7 hPa | 0 mm | 0 m/s | 97 W/m² | - |
| 1778019718 | 15° C | 65% | 1016.7 hPa | 0 mm | 0 m/s | 104 W/m² | - |
| 1778019416 | 15° C | 65% | 1016.5 hPa | 0 mm | 0.45 m/s, 353° | 120 W/m² | - |
| 1778019112 | 14.44° C | 67% | 1016.5 hPa | 0 mm | 0 m/s | 134 W/m² | - |
| 1778018809 | 14.44° C | 66% | 1016.7 hPa | 0 mm | 0 m/s | 124 W/m² | - |
| 1778018507 | 14.44° C | 66% | 1016.7 hPa | 0 mm | 0 m/s | 133 W/m² | - |
| 1778018204 | 14.44° C | 66% | 1016.9 hPa | 0 mm | 0.45 m/s, 47° | 130 W/m² | - |
| 1778017902 | 14.44° C | 67% | 1016.7 hPa | 0 mm | 0 m/s | 125 W/m² | - |
| 1778017600 | 14.44° C | 68% | 1016.6 hPa | 0 mm | 0.45 m/s, 329° | 132 W/m² | - |
| 1778017297 | 14.44° C | 68% | 1016.8 hPa | 0 mm | 0.45 m/s, 64° | 144 W/m² | - |
| 1778016995 | 14.44° C | 69% | 1016.9 hPa | 0 mm | 0 m/s | 146 W/m² | - |
| 1778016691 | 14.44° C | 71% | 1016.7 hPa | 0 mm | 0 m/s | 127 W/m² | - |
* Rain latest hour (hover to see other rain measurements)
** Current wind speed in m/s (hover to see current wind gust speed)